Radiation Dose at Monitoring Post of Fukushima Daini Nuclear Power Station
Date,Time,MP-1(microSv/h),MP-2(microSv/h),MP-3(microSv/h),MP-4(microSv/h),MP-5(microSv/h),MP-6(microSv/h),MP-7(microSv/h),Wind Direction,Wind Velocity(m/s),Rain
2020/02/05,00:00,0.181,0.164,0.275,0.256,0.253,0.139,0.086,south-southwest,5.9,No
2020/02/05,00:10,0.181,0.164,0.275,0.258,0.254,0.139,0.086,south-southwest,4.3,No
2020/02/05,00:20,0.182,0.164,0.276,0.257,0.253,0.140,0.086,south-southwest,4.4,No
2020/02/05,00:30,0.182,0.164,0.274,0.257,0.254,0.140,0.086,south-southwest,3.5,No
2020/02/05,00:40,0.182,0.164,0.274,0.256,0.253,0.140,0.086,south-southwest,2.6,No
2020/02/05,00:50,0.181,0.164,0.276,0.255,0.254,0.139,0.086,southwest,3.1,No
2020/02/05,01:00,0.181,0.165,0.275,0.255,0.255,0.140,0.086,west-southwest,2.9,No
2020/02/05,01:10,0.182,0.164,0.276,0.256,0.253,0.141,0.086,southwest,3.0,No
2020/02/05,01:20,0.181,0.163,0.276,0.257,0.253,0.140,0.086,west-southwest,4.4,No
2020/02/05,01:30,0.181,0.164,0.275,0.257,0.253,0.140,0.086,west-southwest,3.9,No
2020/02/05,01:40,0.182,0.163,0.276,0.257,0.252,0.141,0.087,west-southwest,2.8,No
2020/02/05,01:50,0.181,0.164,0.276,0.256,0.253,0.140,0.086,west,2.4,No
2020/02/05,02:00,0.181,0.164,0.277,0.256,0.253,0.140,0.086,northwest,1.9,No
2020/02/05,02:10,0.182,0.164,0.276,0.256,0.253,0.140,0.086,northwest,2.8,No
2020/02/05,02:20,0.181,0.163,0.277,0.256,0.255,0.140,0.086,north-northwest,3.9,No
2020/02/05,02:30,0.182,0.164,0.276,0.255,0.253,0.140,0.086,northwest,5.1,No
2020/02/05,02:40,0.181,0.163,0.275,0.256,0.254,0.140,0.086,northwest,3.8,No
2020/02/05,02:50,0.182,0.164,0.277,0.257,0.254,0.140,0.086,north-northwest,2.0,No
2020/02/05,03:00,0.182,0.163,0.275,0.257,0.253,0.139,0.086,north-northwest,2.3,No
2020/02/05,03:10,0.181,0.164,0.276,0.257,0.253,0.140,0.087,north-northwest,1.8,No
2020/02/05,03:20,0.183,0.163,0.275,0.256,0.254,0.140,0.087,west-northwest,1.0,No
2020/02/05,03:30,0.181,0.164,0.276,0.257,0.253,0.140,0.086,west,2.6,No
2020/02/05,03:40,0.182,0.164,0.276,0.256,0.253,0.140,0.086,west-northwest,1.2,No
2020/02/05,03:50,0.182,0.164,0.276,0.256,0.253,0.141,0.087,west-northwest,0.7,No
2020/02/05,04:00,0.181,0.164,0.275,0.256,0.254,0.141,0.086,northwest,2.9,No
2020/02/05,04:10,0.181,0.165,0.274,0.257,0.252,0.140,0.086,west-northwest,3.7,No
2020/02/05,04:20,0.181,0.163,0.276,0.256,0.254,0.140,0.086,northwest,5.3,No
2020/02/05,04:30,0.181,0.163,0.276,0.257,0.255,0.139,0.086,west-northwest,7.5,No
2020/02/05,04:40,0.181,0.164,0.276,0.256,0.252,0.140,0.087,west-northwest,7.5,No
2020/02/05,04:50,0.182,0.163,0.275,0.255,0.253,0.140,0.087,west-northwest,5.6,No
2020/02/05,05:00,0.182,0.163,0.274,0.256,0.254,0.140,0.086,west-northwest,4.9,No
2020/02/05,05:10,0.180,0.164,0.275,0.258,0.253,0.139,0.086,west-northwest,4.6,No
2020/02/05,05:20,0.182,0.163,0.276,0.257,0.252,0.140,0.086,west-northwest,6.5,No
2020/02/05,05:30,0.182,0.163,0.274,0.256,0.255,0.140,0.087,west-northwest,5.9,No
2020/02/05,05:40,0.180,0.163,0.275,0.256,0.253,0.140,0.086,northwest,4.8,No
2020/02/05,05:50,0.182,0.162,0.274,0.256,0.254,0.139,0.085,west-northwest,3.7,No
2020/02/05,06:00,0.182,0.163,0.276,0.257,0.253,0.139,0.086,west-northwest,2.8,No
2020/02/05,06:10,0.182,0.163,0.276,0.255,0.252,0.139,0.087,-,CALM,No
2020/02/05,06:20,0.181,0.163,0.275,0.255,0.254,0.140,0.086,southeast,2.7,No
2020/02/05,06:30,0.182,0.163,0.275,0.255,0.253,0.139,0.086,south-southwest,3.1,No
2020/02/05,06:40,0.181,0.163,0.276,0.256,0.252,0.139,0.086,south,3.6,No
2020/02/05,06:50,0.181,0.164,0.275,0.256,0.253,0.140,0.085,south,2.6,No
2020/02/05,07:00,0.182,0.163,0.275,0.256,0.253,0.139,0.086,south,2.1,No
2020/02/05,07:10,0.181,0.163,0.275,0.256,0.254,0.140,0.086,south,2.1,No
2020/02/05,07:20,0.182,0.163,0.276,0.255,0.253,0.139,0.086,south,1.4,No
2020/02/05,07:30,0.181,0.164,0.275,0.256,0.254,0.140,0.086,south-southwest,1.3,No
2020/02/05,07:40,0.181,0.164,0.275,0.255,0.253,0.140,0.086,south-southwest,0.7,No
2020/02/05,07:50,0.181,0.164,0.276,0.256,0.254,0.139,0.086,-,CALM,No
2020/02/05,08:00,0.182,0.162,0.273,0.256,0.253,0.139,0.086,east-northeast,0.6,No
2020/02/05,08:10,0.181,0.163,0.274,0.255,0.253,0.139,0.086,east,1.4,No
2020/02/05,08:20,0.182,0.164,0.276,0.255,0.253,0.140,0.086,-,CALM,No
2020/02/05,08:30,0.181,0.163,0.274,0.257,0.253,0.140,0.085,north-northeast,1.2,No
2020/02/05,08:40,0.182,0.164,0.274,0.253,0.253,0.140,0.085,north-northeast,0.6,No
2020/02/05,08:50,0.181,0.163,0.273,0.256,0.254,0.140,0.086,-,CALM,No
2020/02/05,09:00,0.181,0.164,0.275,0.257,0.253,0.139,0.086,-,CALM,No
2020/02/05,09:10,0.182,0.163,0.275,0.254,0.253,0.140,0.086,-,CALM,No
2020/02/05,09:20,0.181,0.163,0.275,0.256,0.253,0.139,0.086,south-southeast,1.5,No
2020/02/05,09:30,0.180,0.163,0.275,0.255,0.253,0.139,0.085,southeast,2.2,No
2020/02/05,09:40,0.180,0.163,0.276,0.255,0.254,0.139,0.086,southeast,4.0,No
2020/02/05,09:50,0.182,0.162,0.275,0.255,0.252,0.139,0.086,southeast,3.9,No
2020/02/05,10:00,0.180,0.163,0.274,0.255,0.254,0.140,0.086,south-southeast,4.1,No
2020/02/05,10:10,0.182,0.163,0.275,0.255,0.252,0.140,0.086,south-southeast,3.9,No
2020/02/05,10:20,0.180,0.163,0.277,0.254,0.254,0.140,0.085,south-southeast,4.9,No
2020/02/05,10:30,0.181,0.163,0.275,0.256,0.252,0.140,0.086,south,6.2,No
2020/02/05,10:40,0.180,0.163,0.276,0.256,0.253,0.141,0.086,south,5.3,No
2020/02/05,10:50,0.181,0.163,0.275,0.255,0.252,0.140,0.086,south,4.9,No
2020/02/05,11:00,0.180,0.163,0.274,0.256,0.253,0.141,0.085,south-southeast,4.7,No
2020/02/05,11:10,0.181,0.163,0.276,0.257,0.254,0.140,0.086,south-southeast,4.3,No
2020/02/05,11:20,0.179,0.164,0.276,0.255,0.252,0.139,0.085,south-southeast,3.1,No
2020/02/05,11:30,0.181,0.162,0.274,0.255,0.253,0.140,0.087,south,3.3,No
2020/02/05,11:40,0.179,0.164,0.276,0.254,0.255,0.139,0.086,west-southwest,9.5,No
2020/02/05,11:50,0.182,0.162,0.275,0.255,0.252,0.140,0.086,west-southwest,10.9,No
2020/02/05,12:00,0.180,0.164,0.276,0.255,0.255,0.140,0.086,west-southwest,5.4,No
2020/02/05,12:10,0.181,0.163,0.274,0.256,0.252,0.140,0.086,west-southwest,4.3,No
2020/02/05,12:20,0.180,0.163,0.275,0.256,0.253,0.139,0.086,west,5.5,No
2020/02/05,12:30,0.181,0.163,0.275,0.256,0.253,0.140,0.086,west,4.2,No
2020/02/05,12:40,0.181,0.163,0.274,0.256,0.253,0.140,0.086,west,8.4,No
2020/02/05,12:50,0.182,0.165,0.275,0.256,0.253,0.140,0.086,west,10.7,No
2020/02/05,13:00,0.181,0.163,0.274,0.257,0.254,0.140,0.085,west,11.7,No
2020/02/05,13:10,0.181,0.163,0.276,0.255,0.255,0.141,0.086,west,9.5,No
2020/02/05,13:20,0.181,0.163,0.276,0.257,0.254,0.141,0.086,west,12.2,No
2020/02/05,13:30,0.181,0.164,0.274,0.254,0.256,0.139,0.086,west,9.2,No
2020/02/05,13:40,0.182,0.164,0.275,0.256,0.253,0.140,0.086,west-northwest,10.7,No
2020/02/05,13:50,0.180,0.163,0.274,0.254,0.254,0.139,0.085,west-northwest,10.6,No
2020/02/05,14:00,0.183,0.164,0.277,0.256,0.253,0.140,0.085,west-northwest,9.2,No
2020/02/05,14:10,0.182,0.163,0.275,0.255,0.255,0.139,0.086,west-northwest,8.5,No
2020/02/05,14:20,0.182,0.164,0.276,0.257,0.253,0.141,0.086,west-northwest,6.3,No
2020/02/05,14:30,0.181,0.164,0.278,0.256,0.255,0.140,0.085,northwest,8.5,No
2020/02/05,14:40,0.181,0.163,0.278,0.257,0.255,0.139,0.086,west-northwest,8.1,No
2020/02/05,14:50,0.183,0.164,0.278,0.257,0.255,0.139,0.087,west-northwest,10.9,Yes
2020/02/05,15:00,0.182,0.163,0.278,0.258,0.255,0.140,0.087,west,12.5,Yes
2020/02/05,15:10,0.182,0.164,0.278,0.257,0.255,0.140,0.086,west-northwest,9.5,No
2020/02/05,15:20,0.182,0.164,0.277,0.258,0.255,0.141,0.086,west,8.7,No
2020/02/05,15:30,0.183,0.164,0.277,0.258,0.256,0.141,0.086,west,7.9,No
2020/02/05,15:40,0.183,0.165,0.277,0.258,0.253,0.141,0.086,west-northwest,7.1,No
2020/02/05,15:50,0.181,0.164,0.277,0.258,0.255,0.140,0.086,northwest,8.6,No
2020/02/05,16:00,0.182,0.163,0.278,0.256,0.255,0.141,0.086,north-northwest,10.1,Yes
2020/02/05,16:10,0.183,0.164,0.276,0.258,0.255,0.141,0.087,west-northwest,9.2,Yes
2020/02/05,16:20,0.182,0.164,0.278,0.258,0.256,0.142,0.087,northwest,7.3,No
2020/02/05,16:30,0.182,0.164,0.278,0.258,0.256,0.142,0.087,northwest,7.9,No
2020/02/05,16:40,0.183,0.164,0.277,0.258,0.255,0.142,0.087,north-northwest,8.8,No
2020/02/05,16:50,0.182,0.164,0.277,0.258,0.255,0.142,0.087,north-northwest,9.5,No
2020/02/05,17:00,0.183,0.164,0.278,0.258,0.255,0.142,0.087,northwest,8.2,No
2020/02/05,17:10,0.182,0.164,0.277,0.257,0.255,0.141,0.087,northwest,8.1,No
2020/02/05,17:20,0.183,0.164,0.279,0.259,0.256,0.140,0.087,north-northwest,9.5,No
2020/02/05,17:30,0.183,0.165,0.279,0.258,0.254,0.142,0.087,north-northwest,10.9,No
2020/02/05,17:40,0.183,0.165,0.279,0.259,0.253,0.139,0.086,north-northwest,9.5,No
2020/02/05,17:50,0.182,0.164,0.279,0.258,0.254,0.141,0.087,north-northwest,7.1,No
2020/02/05,18:00,0.182,0.165,0.279,0.259,0.256,0.141,0.087,north-northwest,6.5,No
2020/02/05,18:10,0.183,0.164,0.278,0.257,0.254,0.140,0.087,north-northwest,7.1,No
2020/02/05,18:20,0.183,0.165,0.277,0.258,0.254,0.141,0.087,north,5.8,No
2020/02/05,18:30,0.183,0.165,0.278,0.257,0.255,0.140,0.087,north,6.7,No
2020/02/05,18:40,0.183,0.164,0.279,0.257,0.255,0.141,0.087,north,7.4,No
2020/02/05,18:50,0.182,0.163,0.277,0.257,0.254,0.142,0.086,north-northwest,5.7,No
2020/02/05,19:00,0.184,0.164,0.277,0.258,0.254,0.140,0.086,north,6.3,No
2020/02/05,19:10,0.184,0.165,0.279,0.258,0.254,0.140,0.087,north,6.1,No
2020/02/05,19:20,0.183,0.163,0.278,0.257,0.255,0.141,0.086,north-northwest,4.3,No
2020/02/05,19:30,0.182,0.163,0.277,0.257,0.254,0.140,0.087,northwest,6.5,No
2020/02/05,19:40,0.183,0.163,0.277,0.257,0.255,0.140,0.087,northwest,9.2,No
2020/02/05,19:50,0.182,0.163,0.277,0.258,0.253,0.140,0.086,northwest,8.5,No
2020/02/05,20:00,0.183,0.164,0.278,0.259,0.254,0.140,0.086,northwest,5.6,No
2020/02/05,20:10,0.182,0.164,0.278,0.257,0.254,0.140,0.086,northwest,5.7,No
2020/02/05,20:20,0.183,0.165,0.278,0.258,0.255,0.140,0.087,northwest,6.2,No
2020/02/05,20:30,0.183,0.163,0.277,0.258,0.255,0.141,0.087,north-northwest,4.9,No
2020/02/05,20:40,0.183,0.164,0.277,0.258,0.254,0.141,0.086,northwest,5.4,No
2020/02/05,20:50,0.182,0.163,0.277,0.258,0.255,0.141,0.087,northwest,7.3,No
2020/02/05,21:00,0.181,0.163,0.278,0.257,0.254,0.139,0.087,northwest,8.6,No
2020/02/05,21:10,0.182,0.163,0.277,0.257,0.255,0.140,0.087,northwest,4.1,No
2020/02/05,21:20,0.183,0.164,0.278,0.256,0.255,0.141,0.086,north-northwest,2.9,No
2020/02/05,21:30,0.182,0.164,0.276,0.259,0.254,0.140,0.086,north-northwest,3.1,No
2020/02/05,21:40,0.183,0.164,0.276,0.258,0.254,0.141,0.087,north-northwest,4.3,No
2020/02/05,21:50,0.182,0.163,0.276,0.258,0.256,0.140,0.087,northwest,4.6,No
2020/02/05,22:00,0.183,0.163,0.278,0.258,0.255,0.141,0.087,northwest,5.4,No
2020/02/05,22:10,0.182,0.164,0.279,0.258,0.255,0.140,0.087,north-northwest,4.7,Yes
2020/02/05,22:20,0.183,0.165,0.278,0.260,0.256,0.142,0.087,northwest,5.0,Yes
2020/02/05,22:30,0.184,0.165,0.278,0.259,0.256,0.142,0.088,northwest,3.5,Yes
2020/02/05,22:40,0.183,0.165,0.278,0.259,0.257,0.142,0.088,northwest,1.8,No
2020/02/05,22:50,0.184,0.165,0.278,0.259,0.255,0.141,0.088,northwest,2.6,Yes
2020/02/05,23:00,0.183,0.165,0.279,0.258,0.255,0.141,0.087,northwest,1.9,No
2020/02/05,23:10,0.183,0.164,0.277,0.258,0.254,0.141,0.087,northwest,2.3,Yes
2020/02/05,23:20,0.183,0.165,0.277,0.258,0.255,0.141,0.087,north-northwest,2.5,Yes
2020/02/05,23:30,0.182,0.165,0.277,0.258,0.256,0.141,0.086,north-northwest,1.7,No
2020/02/05,23:40,0.183,0.164,0.279,0.257,0.254,0.140,0.087,west-northwest,1.6,No
2020/02/05,23:50,0.183,0.164,0.276,0.257,0.255,0.140,0.086,northwest,0.9,No
